contact:dominique.lefevre@mio.osupytheas.fr, maurice.libes@osupytheas.fr, didier.mallarino@osupytheas.fr
Project:EMSO http://www.emso-fr.org/EMSO-France
Depth: 2436.0 m
Title:EMSO Ligure Ouest : Data MII capteur MICROCAT
DateTime_Computer,Latitude,Longitude,Temperature,Conductivity,Pressure,DateTime_Instrument
DateTime_Computer,Latitude,Longitude,degC,S m-1,dbar,DateTime_Instrument
2019-07-31T00:02:58Z,42.805,6.029,13.2955,4.59957,2469.853,2019-7-31T02:03:17Z
2019-07-31T00:06:01Z,42.805,6.029,13.2954,4.59956,2469.876,2019-7-31T02:06:20Z
2019-07-31T00:09:04Z,42.805,6.029,13.2959,4.59956,2469.83,2019-7-31T02:09:24Z
2019-07-31T00:12:07Z,42.805,6.029,13.2960,4.59955,2469.83,2019-7-31T02:12:27Z
2019-07-31T00:15:10Z,42.805,6.029,13.2957,4.59956,2469.83,2019-7-31T02:15:30Z
2019-07-31T00:18:14Z,42.805,6.029,13.2956,4.59956,2469.853,2019-7-31T02:18:33Z
2019-07-31T00:21:17Z,42.805,6.029,13.2957,4.59955,2469.853,2019-7-31T02:21:36Z
2019-07-31T00:24:20Z,42.805,6.029,13.2956,4.59955,2469.821,2019-7-31T02:24:40Z
2019-07-31T00:27:23Z,42.805,6.029,13.2950,4.59954,2469.867,2019-7-31T02:27:43Z
2019-07-31T00:30:26Z,42.805,6.029,13.2953,4.59954,2469.853,2019-7-31T02:30:46Z
2019-07-31T00:33:30Z,42.805,6.029,13.2956,4.59954,2469.853,2019-7-31T02:33:49Z
2019-07-31T00:36:33Z,42.805,6.029,13.2958,4.59955,2469.844,2019-7-31T02:36:52Z
2019-07-31T00:39:36Z,42.805,6.029,13.2958,4.59955,2469.806,2019-7-31T02:39:56Z
2019-07-31T00:42:39Z,42.805,6.029,13.2958,4.59955,2469.806,2019-7-31T02:42:59Z
2019-07-31T00:45:42Z,42.805,6.029,13.2956,4.59954,2469.83,2019-7-31T02:46:02Z
2019-07-31T00:48:46Z,42.805,6.029,13.2955,4.59954,2469.844,2019-7-31T02:49:05Z
2019-07-31T00:51:49Z,42.805,6.029,13.2961,4.59956,2469.806,2019-7-31T02:52:08Z
2019-07-31T00:54:52Z,42.805,6.029,13.2956,4.59956,2469.853,2019-7-31T02:55:12Z
2019-07-31T00:57:55Z,42.805,6.029,13.2957,4.59954,2469.797,2019-7-31T02:58:15Z
2019-07-31T01:00:58Z,42.805,6.029,13.2956,4.59954,2469.853,2019-7-31T03:01:18Z
2019-07-31T01:04:02Z,42.805,6.029,13.2957,4.59956,2469.783,2019-7-31T03:04:21Z
2019-07-31T01:07:05Z,42.805,6.029,13.2957,4.59954,2469.83,2019-7-31T03:07:24Z
2019-07-31T01:10:08Z,42.805,6.029,13.2954,4.59954,2469.83,2019-7-31T03:10:28Z
2019-07-31T01:13:11Z,42.805,6.029,13.2958,4.59956,2469.83,2019-7-31T03:13:31Z
2019-07-31T01:16:14Z,42.805,6.029,13.2956,4.59955,2469.821,2019-7-31T03:16:34Z
2019-07-31T01:19:18Z,42.805,6.029,13.2957,4.59954,2469.797,2019-7-31T03:19:37Z
2019-07-31T01:22:21Z,42.805,6.029,13.2961,4.59954,2469.844,2019-7-31T03:22:40Z
2019-07-31T01:25:24Z,42.805,6.029,13.2956,4.59955,2469.806,2019-7-31T03:25:44Z
2019-07-31T01:28:27Z,42.805,6.029,13.2956,4.59954,2469.844,2019-7-31T03:28:47Z
2019-07-31T01:31:30Z,42.805,6.029,13.2956,4.59954,2469.806,2019-7-31T03:31:50Z
2019-07-31T01:34:34Z,42.805,6.029,13.2954,4.59954,2469.83,2019-7-31T03:34:53Z
2019-07-31T01:37:37Z,42.805,6.029,13.2957,4.59954,2469.821,2019-7-31T03:37:56Z
2019-07-31T01:40:40Z,42.805,6.029,13.2959,4.59956,2469.844,2019-7-31T03:41:00Z
2019-07-31T01:43:43Z,42.805,6.029,13.2956,4.59955,2469.83,2019-7-31T03:44:03Z
2019-07-31T01:46:46Z,42.805,6.029,13.2955,4.59956,2469.806,2019-7-31T03:47:06Z
2019-07-31T01:49:50Z,42.805,6.029,13.2958,4.59954,2469.821,2019-7-31T03:50:09Z
2019-07-31T01:52:53Z,42.805,6.029,13.2958,4.59954,2469.806,2019-7-31T03:53:12Z
2019-07-31T01:55:56Z,42.805,6.029,13.2956,4.59957,2469.783,2019-7-31T03:56:16Z
2019-07-31T01:58:59Z,42.805,6.029,13.2958,4.59958,2469.806,2019-7-31T03:59:19Z
2019-07-31T02:02:02Z,42.805,6.029,13.2956,4.59954,2469.83,2019-7-31T04:02:22Z
2019-07-31T02:05:06Z,42.805,6.029,13.2955,4.59955,2469.844,2019-7-31T04:05:25Z
2019-07-31T02:08:09Z,42.805,6.029,13.2957,4.59955,2469.867,2019-7-31T04:08:28Z
2019-07-31T02:11:12Z,42.805,6.029,13.2960,4.59956,2469.806,2019-7-31T04:11:32Z
2019-07-31T02:14:15Z,42.805,6.029,13.2958,4.59954,2469.844,2019-7-31T04:14:35Z
2019-07-31T02:17:18Z,42.805,6.029,13.2960,4.59956,2469.83,2019-7-31T04:17:38Z
2019-07-31T02:20:22Z,42.805,6.029,13.2958,4.59954,2469.821,2019-7-31T04:20:41Z
2019-07-31T02:23:25Z,42.805,6.029,13.2957,4.59954,2469.83,2019-7-31T04:23:44Z
2019-07-31T02:26:28Z,42.805,6.029,13.2958,4.59956,2469.844,2019-7-31T04:26:47Z
2019-07-31T02:29:31Z,42.805,6.029,13.2957,4.59956,2469.844,2019-7-31T04:29:51Z
2019-07-31T02:32:34Z,42.805,6.029,13.2953,4.59955,2469.806,2019-7-31T04:32:54Z
2019-07-31T02:35:38Z,42.805,6.029,13.2960,4.59955,2469.853,2019-7-31T04:35:57Z
2019-07-31T02:38:41Z,42.805,6.029,13.2958,4.59955,2469.844,2019-7-31T04:39:00Z
2019-07-31T02:41:44Z,42.805,6.029,13.2954,4.59956,2469.844,2019-7-31T04:42:03Z
2019-07-31T02:44:47Z,42.805,6.029,13.2958,4.59954,2469.853,2019-7-31T04:45:07Z
2019-07-31T02:47:50Z,42.805,6.029,13.2958,4.59955,2469.821,2019-7-31T04:48:10Z
2019-07-31T02:50:53Z,42.805,6.029,13.2958,4.59954,2469.821,2019-7-31T04:51:13Z
2019-07-31T02:53:57Z,42.805,6.029,13.2953,4.59955,2469.821,2019-7-31T04:54:16Z
2019-07-31T02:57:00Z,42.805,6.029,13.2958,4.59958,2469.83,2019-7-31T04:57:19Z
2019-07-31T03:00:03Z,42.805,6.029,13.2955,4.59956,2469.83,2019-7-31T05:00:23Z
2019-07-31T03:03:06Z,42.805,6.029,13.2954,4.59958,2469.83,2019-7-31T05:03:26Z
2019-07-31T03:06:09Z,42.805,6.029,13.2957,4.59954,2469.867,2019-7-31T05:06:29Z
2019-07-31T03:09:13Z,42.805,6.029,13.2957,4.59956,2469.853,2019-7-31T05:09:32Z
2019-07-31T03:12:16Z,42.805,6.029,13.2955,4.59957,2469.876,2019-7-31T05:12:35Z
2019-07-31T03:15:19Z,42.805,6.029,13.2956,4.59956,2469.853,2019-7-31T05:15:39Z
2019-07-31T03:18:22Z,42.805,6.029,13.2961,4.59955,2469.853,2019-7-31T05:18:42Z
2019-07-31T03:21:25Z,42.805,6.029,13.2960,4.59954,2469.867,2019-7-31T05:21:45Z
2019-07-31T03:24:29Z,42.805,6.029,13.2959,4.59955,2469.89,2019-7-31T05:24:48Z
2019-07-31T03:27:32Z,42.805,6.029,13.2954,4.59957,2469.9,2019-7-31T05:27:52Z
2019-07-31T03:30:35Z,42.805,6.029,13.2958,4.59955,2469.83,2019-7-31T05:30:55Z
2019-07-31T03:33:39Z,42.805,6.029,13.2957,4.59954,2469.839,2019-7-31T05:33:58Z
2019-07-31T03:36:42Z,42.805,6.029,13.2953,4.59954,2469.9,2019-7-31T05:37:01Z
2019-07-31T03:39:45Z,42.805,6.029,13.2953,4.59955,2469.876,2019-7-31T05:40:04Z
2019-07-31T03:42:48Z,42.805,6.029,13.2952,4.59955,2469.914,2019-7-31T05:43:08Z
2019-07-31T03:45:51Z,42.805,6.029,13.2955,4.59958,2469.876,2019-7-31T05:46:11Z
2019-07-31T03:48:54Z,42.805,6.029,13.2958,4.59955,2469.853,2019-7-31T05:49:14Z
2019-07-31T03:51:58Z,42.805,6.029,13.2956,4.59956,2469.867,2019-7-31T05:52:17Z
2019-07-31T03:55:01Z,42.805,6.029,13.2957,4.59957,2469.9,2019-7-31T05:55:20Z
2019-07-31T03:58:04Z,42.805,6.029,13.2958,4.59956,2469.876,2019-7-31T05:58:24Z
2019-07-31T04:01:07Z,42.805,6.029,13.2957,4.59956,2469.9,2019-7-31T06:01:27Z
2019-07-31T04:04:10Z,42.805,6.029,13.2954,4.59956,2469.9,2019-7-31T06:04:30Z
2019-07-31T04:07:14Z,42.805,6.029,13.2959,4.59956,2469.867,2019-7-31T06:07:33Z
2019-07-31T04:10:17Z,42.805,6.029,13.2952,4.59956,2469.89,2019-7-31T06:10:36Z
2019-07-31T04:13:20Z,42.805,6.029,13.2958,4.59955,2469.9,2019-7-31T06:13:40Z
2019-07-31T04:16:23Z,42.805,6.029,13.2953,4.59956,2469.923,2019-7-31T06:16:43Z
2019-07-31T04:19:26Z,42.805,6.029,13.2954,4.59956,2469.9,2019-7-31T06:19:46Z
2019-07-31T04:22:30Z,42.805,6.029,13.2955,4.59956,2469.923,2019-7-31T06:22:49Z
2019-07-31T04:25:33Z,42.805,6.029,13.2958,4.59955,2469.914,2019-7-31T06:25:52Z
2019-07-31T04:28:36Z,42.805,6.029,13.2957,4.59954,2469.923,2019-7-31T06:28:56Z
2019-07-31T04:31:39Z,42.805,6.029,13.2959,4.59954,2469.914,2019-7-31T06:31:59Z
2019-07-31T04:34:42Z,42.805,6.029,13.2961,4.59956,2469.937,2019-7-31T06:35:02Z
2019-07-31T04:37:46Z,42.805,6.029,13.2955,4.59956,2469.923,2019-7-31T06:38:05Z
2019-07-31T04:40:49Z,42.805,6.029,13.2960,4.59954,2469.9,2019-7-31T06:41:08Z
2019-07-31T04:43:52Z,42.805,6.029,13.2956,4.59956,2469.96,2019-7-31T06:44:12Z
2019-07-31T04:46:55Z,42.805,6.029,13.2960,4.59955,2469.96,2019-7-31T06:47:15Z
2019-07-31T04:49:59Z,42.805,6.029,13.2953,4.59954,2469.923,2019-7-31T06:50:18Z
2019-07-31T04:53:02Z,42.805,6.029,13.2953,4.59955,2469.947,2019-7-31T06:53:21Z
2019-07-31T04:56:05Z,42.805,6.029,13.2953,4.59955,2469.937,2019-7-31T06:56:24Z
2019-07-31T04:59:08Z,42.805,6.029,13.2958,4.59956,2469.923,2019-7-31T06:59:28Z
2019-07-31T05:02:11Z,42.805,6.029,13.2957,4.59954,2469.923,2019-7-31T07:02:31Z
2019-07-31T05:05:14Z,42.805,6.029,13.2954,4.59954,2469.937,2019-7-31T07:05:34Z
2019-07-31T05:08:18Z,42.805,6.029,13.2957,4.59955,2469.923,2019-7-31T07:08:37Z
2019-07-31T05:11:21Z,42.805,6.029,13.2957,4.59954,2469.937,2019-7-31T07:11:40Z
2019-07-31T05:14:24Z,42.805,6.029,13.2955,4.59954,2469.984,2019-7-31T07:14:44Z
2019-07-31T05:17:27Z,42.805,6.029,13.2958,4.59957,2469.96,2019-7-31T07:17:47Z
2019-07-31T05:20:30Z,42.805,6.029,13.2958,4.59956,2469.947,2019-7-31T07:20:50Z
2019-07-31T05:23:34Z,42.805,6.029,13.2952,4.59956,2469.947,2019-7-31T07:23:53Z
2019-07-31T05:26:37Z,42.805,6.029,13.2956,4.59954,2469.947,2019-7-31T07:26:56Z
2019-07-31T05:29:40Z,42.805,6.029,13.2957,4.59957,2469.947,2019-7-31T07:29:59Z
2019-07-31T05:32:43Z,42.805,6.029,13.2955,4.59954,2469.947,2019-7-31T07:33:03Z
2019-07-31T05:35:46Z,42.805,6.029,13.2958,4.59955,2469.947,2019-7-31T07:36:06Z
2019-07-31T05:38:50Z,42.805,6.029,13.2956,4.59955,2469.947,2019-7-31T07:39:09Z
2019-07-31T05:41:53Z,42.805,6.029,13.2956,4.59957,2469.947,2019-7-31T07:42:12Z
2019-07-31T05:44:56Z,42.805,6.029,13.2957,4.59956,2469.947,2019-7-31T07:45:16Z
2019-07-31T05:47:59Z,42.805,6.029,13.2956,4.59956,2469.947,2019-7-31T07:48:19Z
2019-07-31T05:51:02Z,42.805,6.029,13.2956,4.59956,2469.97,2019-7-31T07:51:22Z
2019-07-31T05:54:06Z,42.805,6.029,13.2956,4.59955,2469.947,2019-7-31T07:54:25Z
2019-07-31T05:57:09Z,42.805,6.029,13.2953,4.59955,2469.947,2019-7-31T07:57:28Z
2019-07-31T06:00:12Z,42.805,6.029,13.2958,4.59958,2469.96,2019-7-31T08:00:32Z
2019-07-31T06:03:15Z,42.805,6.029,13.2958,4.59957,2469.923,2019-7-31T08:03:35Z
2019-07-31T06:06:18Z,42.805,6.029,13.2958,4.59958,2469.923,2019-7-31T08:06:38Z
2019-07-31T06:09:22Z,42.805,6.029,13.2954,4.59957,2469.937,2019-7-31T08:09:41Z
2019-07-31T06:12:25Z,42.805,6.029,13.2957,4.59955,2469.96,2019-7-31T08:12:44Z
2019-07-31T06:15:28Z,42.805,6.029,13.2956,4.59956,2469.947,2019-7-31T08:15:48Z
2019-07-31T06:18:31Z,42.805,6.029,13.2954,4.59956,2469.96,2019-7-31T08:18:51Z
2019-07-31T06:21:34Z,42.805,6.029,13.2958,4.59956,2469.947,2019-7-31T08:21:54Z
2019-07-31T06:24:38Z,42.805,6.029,13.2956,4.59956,2469.937,2019-7-31T08:24:57Z
2019-07-31T06:27:41Z,42.805,6.029,13.2953,4.59956,2469.937,2019-7-31T08:28:00Z
2019-07-31T06:30:44Z,42.805,6.029,13.2953,4.59956,2469.937,2019-7-31T08:31:04Z
2019-07-31T06:33:47Z,42.805,6.029,13.2958,4.59954,2469.96,2019-7-31T08:34:07Z
2019-07-31T06:36:51Z,42.805,6.029,13.2960,4.59956,2469.923,2019-7-31T08:37:10Z
2019-07-31T06:39:54Z,42.805,6.029,13.2960,4.59957,2469.947,2019-7-31T08:40:13Z
2019-07-31T06:42:57Z,42.805,6.029,13.2961,4.59958,2469.947,2019-7-31T08:43:17Z
2019-07-31T06:46:00Z,42.805,6.029,13.2958,4.59956,2469.947,2019-7-31T08:46:20Z
2019-07-31T06:49:03Z,42.805,6.029,13.2955,4.59954,2469.947,2019-7-31T08:49:23Z
2019-07-31T06:52:07Z,42.805,6.029,13.2957,4.59955,2469.96,2019-7-31T08:52:26Z
2019-07-31T06:55:10Z,42.805,6.029,13.2957,4.59955,2469.96,2019-7-31T08:55:29Z
2019-07-31T06:58:13Z,42.805,6.029,13.2961,4.59955,2469.937,2019-7-31T08:58:33Z
2019-07-31T07:01:16Z,42.805,6.029,13.2953,4.59953,2469.96,2019-7-31T09:01:36Z
2019-07-31T07:04:19Z,42.805,6.029,13.2957,4.59954,2469.96,2019-7-31T09:04:39Z
2019-07-31T07:07:23Z,42.805,6.029,13.2955,4.59955,2469.9,2019-7-31T09:07:42Z
2019-07-31T07:10:26Z,42.805,6.029,13.2959,4.59955,2469.876,2019-7-31T09:10:45Z
2019-07-31T07:13:29Z,42.805,6.029,13.2957,4.59958,2469.9,2019-7-31T09:13:49Z
2019-07-31T07:16:32Z,42.805,6.029,13.2958,4.59955,2469.923,2019-7-31T09:16:52Z
2019-07-31T07:19:35Z,42.805,6.029,13.2957,4.59955,2469.909,2019-7-31T09:19:55Z
2019-07-31T07:22:39Z,42.805,6.029,13.2958,4.59957,2469.923,2019-7-31T09:22:58Z
2019-07-31T07:25:42Z,42.805,6.029,13.2955,4.59956,2469.923,2019-7-31T09:26:01Z
2019-07-31T07:28:45Z,42.805,6.029,13.2957,4.59956,2469.914,2019-7-31T09:29:05Z
2019-07-31T07:31:48Z,42.805,6.029,13.2952,4.59957,2469.923,2019-7-31T09:32:08Z
2019-07-31T07:34:51Z,42.805,6.029,13.2960,4.59957,2469.96,2019-7-31T09:35:11Z
2019-07-31T07:37:55Z,42.805,6.029,13.2956,4.59956,2469.923,2019-7-31T09:38:14Z
2019-07-31T07:40:58Z,42.805,6.029,13.2957,4.59955,2469.947,2019-7-31T09:41:17Z
2019-07-31T07:44:01Z,42.805,6.029,13.2957,4.59954,2469.9,2019-7-31T09:44:21Z
2019-07-31T07:47:04Z,42.805,6.029,13.2955,4.59957,2469.9,2019-7-31T09:47:24Z
2019-07-31T07:50:07Z,42.805,6.029,13.2955,4.59954,2469.937,2019-7-31T09:50:27Z
2019-07-31T07:53:11Z,42.805,6.029,13.2954,4.59955,2469.914,2019-7-31T09:53:30Z
2019-07-31T07:56:14Z,42.805,6.029,13.2956,4.59955,2469.9,2019-7-31T09:56:33Z
2019-07-31T07:59:17Z,42.805,6.029,13.2957,4.59960,2469.9,2019-7-31T09:59:37Z
2019-07-31T08:02:20Z,42.805,6.029,13.2955,4.59956,2469.937,2019-7-31T10:02:40Z
2019-07-31T08:05:23Z,42.805,6.029,13.2957,4.59957,2469.937,2019-7-31T10:05:43Z
2019-07-31T08:08:27Z,42.805,6.029,13.2954,4.59955,2469.914,2019-7-31T10:08:46Z
2019-07-31T08:11:30Z,42.805,6.029,13.2958,4.59955,2469.914,2019-7-31T10:11:49Z
2019-07-31T08:14:33Z,42.805,6.029,13.2955,4.59956,2469.9,2019-7-31T10:14:53Z
2019-07-31T08:17:36Z,42.805,6.029,13.2958,4.59956,2469.923,2019-7-31T10:17:56Z
2019-07-31T08:20:39Z,42.805,6.029,13.2957,4.59955,2469.876,2019-7-31T10:20:59Z
2019-07-31T08:23:43Z,42.805,6.029,13.2958,4.59958,2469.9,2019-7-31T10:24:02Z
2019-07-31T08:26:46Z,42.805,6.029,13.2958,4.59955,2469.89,2019-7-31T10:27:05Z
2019-07-31T08:29:49Z,42.805,6.029,13.2958,4.59955,2469.89,2019-7-31T10:30:09Z
2019-07-31T08:32:52Z,42.805,6.029,13.2953,4.59957,2469.89,2019-7-31T10:33:12Z
2019-07-31T08:35:55Z,42.805,6.029,13.2957,4.59956,2469.89,2019-7-31T10:36:15Z
2019-07-31T08:38:59Z,42.805,6.029,13.2958,4.59957,2469.89,2019-7-31T10:39:18Z
2019-07-31T08:42:02Z,42.805,6.029,13.2957,4.59954,2469.89,2019-7-31T10:42:21Z
2019-07-31T08:45:05Z,42.805,6.029,13.2954,4.59954,2469.923,2019-7-31T10:45:25Z
2019-07-31T08:48:08Z,42.805,6.029,13.2953,4.59957,2469.89,2019-7-31T10:48:28Z
2019-07-31T08:51:11Z,42.805,6.029,13.2957,4.59955,2469.89,2019-7-31T10:51:31Z
2019-07-31T08:54:15Z,42.805,6.029,13.2958,4.59954,2469.853,2019-7-31T10:54:34Z
2019-07-31T08:57:18Z,42.805,6.029,13.2958,4.59955,2469.853,2019-7-31T10:57:37Z
2019-07-31T09:00:21Z,42.805,6.029,13.2957,4.59953,2469.83,2019-7-31T11:00:41Z
2019-07-31T09:03:24Z,42.805,6.029,13.2958,4.59955,2469.867,2019-7-31T11:03:44Z
2019-07-31T09:06:27Z,42.805,6.029,13.2955,4.59957,2469.816,2019-7-31T11:06:47Z
2019-07-31T09:09:31Z,42.805,6.029,13.2958,4.59955,2469.853,2019-7-31T11:09:50Z
2019-07-31T09:12:34Z,42.805,6.029,13.2953,4.59958,2469.83,2019-7-31T11:12:53Z
2019-07-31T09:15:37Z,42.805,6.029,13.2956,4.59956,2469.876,2019-7-31T11:15:57Z
2019-07-31T09:18:40Z,42.805,6.029,13.2952,4.59957,2469.853,2019-7-31T11:19:00Z
2019-07-31T09:21:43Z,42.805,6.029,13.2953,4.59955,2469.83,2019-7-31T11:22:03Z
2019-07-31T09:24:47Z,42.805,6.029,13.2956,4.59955,2469.853,2019-7-31T11:25:06Z
2019-07-31T09:27:50Z,42.805,6.029,13.2955,4.59958,2469.853,2019-7-31T11:28:09Z
2019-07-31T09:30:53Z,42.805,6.029,13.2957,4.59955,2469.83,2019-7-31T11:31:13Z
2019-07-31T09:33:56Z,42.805,6.029,13.2958,4.59956,2469.844,2019-7-31T11:34:16Z
2019-07-31T09:36:59Z,42.805,6.029,13.2957,4.59954,2469.853,2019-7-31T11:37:19Z
2019-07-31T09:40:03Z,42.805,6.029,13.2956,4.59954,2469.844,2019-7-31T11:40:22Z
2019-07-31T09:43:06Z,42.805,6.029,13.2954,4.59956,2469.806,2019-7-31T11:43:25Z
2019-07-31T09:46:09Z,42.805,6.029,13.2956,4.59958,2469.853,2019-7-31T11:46:29Z
2019-07-31T09:49:12Z,42.805,6.029,13.2958,4.59956,2469.844,2019-7-31T11:49:32Z
2019-07-31T09:52:15Z,42.805,6.029,13.2953,4.59953,2469.853,2019-7-31T11:52:35Z
2019-07-31T09:55:19Z,42.805,6.029,13.2956,4.59954,2469.89,2019-7-31T11:55:38Z
2019-07-31T09:58:22Z,42.805,6.029,13.2955,4.59954,2469.806,2019-7-31T11:58:41Z
2019-07-31T10:01:25Z,42.805,6.029,13.2953,4.59955,2469.821,2019-7-31T12:01:45Z
2019-07-31T10:04:28Z,42.805,6.029,13.2958,4.59955,2469.806,2019-7-31T12:04:48Z
2019-07-31T10:07:31Z,42.805,6.029,13.2954,4.59954,2469.83,2019-7-31T12:07:51Z
2019-07-31T10:10:35Z,42.805,6.029,13.2956,4.59954,2469.844,2019-7-31T12:10:54Z
2019-07-31T10:13:38Z,42.805,6.029,13.2955,4.59956,2469.821,2019-7-31T12:13:57Z
2019-07-31T10:16:41Z,42.805,6.029,13.2957,4.59957,2469.797,2019-7-31T12:17:01Z
2019-07-31T10:19:44Z,42.805,6.029,13.2958,4.59955,2469.83,2019-7-31T12:20:04Z
2019-07-31T10:22:47Z,42.805,6.029,13.2953,4.59954,2469.821,2019-7-31T12:23:07Z
2019-07-31T10:25:51Z,42.805,6.029,13.2957,4.59956,2469.806,2019-7-31T12:26:10Z
2019-07-31T10:28:54Z,42.805,6.029,13.2957,4.59954,2469.821,2019-7-31T12:29:13Z
2019-07-31T10:31:57Z,42.805,6.029,13.2958,4.59954,2469.773,2019-7-31T12:32:17Z
2019-07-31T10:35:00Z,42.805,6.029,13.2957,4.59959,2469.821,2019-7-31T12:35:20Z
2019-07-31T10:38:03Z,42.805,6.029,13.2958,4.59955,2469.797,2019-7-31T12:38:23Z
2019-07-31T10:41:07Z,42.805,6.029,13.2954,4.59955,2469.806,2019-7-31T12:41:26Z
2019-07-31T10:44:10Z,42.805,6.029,13.2958,4.59954,2469.806,2019-7-31T12:44:29Z
2019-07-31T10:47:13Z,42.805,6.029,13.2957,4.59954,2469.797,2019-7-31T12:47:33Z
2019-07-31T10:50:16Z,42.805,6.029,13.2956,4.59956,2469.797,2019-7-31T12:50:36Z
2019-07-31T10:53:20Z,42.805,6.029,13.2953,4.59956,2469.773,2019-7-31T12:53:39Z
2019-07-31T10:56:23Z,42.805,6.029,13.2957,4.59956,2469.797,2019-7-31T12:56:42Z
2019-07-31T10:59:26Z,42.805,6.029,13.2956,4.59956,2469.797,2019-7-31T12:59:46Z
2019-07-31T11:02:29Z,42.805,6.029,13.2956,4.59956,2469.76,2019-7-31T13:02:49Z
2019-07-31T11:05:32Z,42.805,6.029,13.2958,4.59956,2469.797,2019-7-31T13:05:52Z
2019-07-31T11:08:36Z,42.805,6.029,13.2956,4.59956,2469.773,2019-7-31T13:08:55Z
2019-07-31T11:11:39Z,42.805,6.029,13.2958,4.59955,2469.76,2019-7-31T13:11:58Z
2019-07-31T11:14:42Z,42.805,6.029,13.2958,4.59960,2469.773,2019-7-31T13:15:02Z
2019-07-31T11:17:45Z,42.805,6.029,13.2957,4.59956,2469.783,2019-7-31T13:18:05Z
2019-07-31T11:20:48Z,42.805,6.029,13.2957,4.59958,2469.737,2019-7-31T13:21:08Z
2019-07-31T11:23:52Z,42.805,6.029,13.2957,4.59954,2469.797,2019-7-31T13:24:11Z
2019-07-31T11:26:55Z,42.805,6.029,13.2957,4.59957,2469.737,2019-7-31T13:27:14Z
2019-07-31T11:29:58Z,42.805,6.029,13.2959,4.59956,2469.737,2019-7-31T13:30:18Z
2019-07-31T11:33:01Z,42.805,6.029,13.2958,4.59960,2469.76,2019-7-31T13:33:21Z
2019-07-31T11:36:04Z,42.805,6.029,13.2957,4.59956,2469.746,2019-7-31T13:36:24Z
2019-07-31T11:39:08Z,42.805,6.029,13.2955,4.59957,2469.727,2019-7-31T13:39:27Z
2019-07-31T11:42:11Z,42.805,6.029,13.2955,4.59956,2469.76,2019-7-31T13:42:31Z
2019-07-31T11:45:14Z,42.805,6.029,13.2956,4.59955,2469.76,2019-7-31T13:45:34Z
2019-07-31T11:48:17Z,42.805,6.029,13.2953,4.59958,2469.76,2019-7-31T13:48:37Z
2019-07-31T11:51:21Z,42.805,6.029,13.2956,4.59954,2469.737,2019-7-31T13:51:40Z
2019-07-31T11:54:24Z,42.805,6.029,13.2958,4.59956,2469.737,2019-7-31T13:54:43Z
2019-07-31T11:57:27Z,42.805,6.029,13.2958,4.59955,2469.76,2019-7-31T13:57:47Z
2019-07-31T12:00:30Z,42.805,6.029,13.2955,4.59956,2469.773,2019-7-31T14:00:50Z
2019-07-31T12:03:34Z,42.805,6.029,13.2956,4.59956,2469.797,2019-7-31T14:03:53Z
2019-07-31T12:06:37Z,42.805,6.029,13.2957,4.59956,2469.737,2019-7-31T14:06:56Z
2019-07-31T12:09:40Z,42.805,6.029,13.2957,4.59956,2469.737,2019-7-31T14:10:00Z
2019-07-31T12:12:43Z,42.805,6.029,13.2956,4.59955,2469.737,2019-7-31T14:13:03Z
2019-07-31T12:15:46Z,42.805,6.029,13.2954,4.59956,2469.76,2019-7-31T14:16:06Z
2019-07-31T12:18:50Z,42.805,6.029,13.2955,4.59956,2469.76,2019-7-31T14:19:09Z
2019-07-31T12:21:53Z,42.805,6.029,13.2958,4.59955,2469.75,2019-7-31T14:22:12Z
2019-07-31T12:24:56Z,42.805,6.029,13.2954,4.59955,2469.76,2019-7-31T14:25:16Z
2019-07-31T12:27:59Z,42.805,6.029,13.2956,4.59960,2469.713,2019-7-31T14:28:19Z
2019-07-31T12:31:03Z,42.805,6.029,13.2957,4.59958,2469.75,2019-7-31T14:31:22Z
2019-07-31T12:34:06Z,42.805,6.029,13.2960,4.59960,2469.773,2019-7-31T14:34:25Z
2019-07-31T12:37:09Z,42.805,6.029,13.2955,4.59958,2469.737,2019-7-31T14:37:29Z
2019-07-31T12:40:12Z,42.805,6.029,13.2957,4.59955,2469.773,2019-7-31T14:40:32Z
2019-07-31T12:43:15Z,42.805,6.029,13.2958,4.59956,2469.737,2019-7-31T14:43:35Z
2019-07-31T12:46:19Z,42.805,6.029,13.2958,4.59957,2469.713,2019-7-31T14:46:38Z
2019-07-31T12:49:22Z,42.805,6.029,13.2958,4.59955,2469.727,2019-7-31T14:49:41Z
2019-07-31T12:52:25Z,42.805,6.029,13.2960,4.59962,2469.737,2019-7-31T14:52:45Z
2019-07-31T12:55:28Z,42.805,6.029,13.2957,4.59961,2469.737,2019-7-31T14:55:48Z
2019-07-31T12:58:31Z,42.805,6.029,13.2958,4.59957,2469.75,2019-7-31T14:58:51Z
2019-07-31T13:01:35Z,42.805,6.029,13.2957,4.59956,2469.737,2019-7-31T15:01:54Z
2019-07-31T13:04:38Z,42.805,6.029,13.2956,4.59955,2469.773,2019-7-31T15:04:57Z
2019-07-31T13:07:41Z,42.805,6.029,13.2957,4.59956,2469.75,2019-7-31T15:08:01Z
2019-07-31T13:10:44Z,42.805,6.029,13.2955,4.59954,2469.737,2019-7-31T15:11:04Z
2019-07-31T13:13:47Z,42.805,6.029,13.2955,4.59954,2469.75,2019-7-31T15:14:07Z
2019-07-31T13:16:51Z,42.805,6.029,13.2957,4.59954,2469.713,2019-7-31T15:17:10Z
2019-07-31T13:19:54Z,42.805,6.029,13.2957,4.59955,2469.737,2019-7-31T15:20:13Z
2019-07-31T13:22:57Z,42.805,6.029,13.2955,4.59956,2469.76,2019-7-31T15:23:17Z
2019-07-31T13:26:00Z,42.805,6.029,13.2953,4.59954,2469.737,2019-7-31T15:26:20Z
2019-07-31T13:29:03Z,42.805,6.029,13.2953,4.59956,2469.727,2019-7-31T15:29:23Z
2019-07-31T13:32:07Z,42.805,6.029,13.2957,4.59955,2469.727,2019-7-31T15:32:26Z
2019-07-31T13:35:10Z,42.805,6.029,13.2960,4.59956,2469.737,2019-7-31T15:35:29Z
2019-07-31T13:38:13Z,42.805,6.029,13.2959,4.59956,2469.787,2019-7-31T15:38:33Z
2019-07-31T13:41:16Z,42.805,6.029,13.2953,4.59954,2469.75,2019-7-31T15:41:36Z
2019-07-31T13:44:20Z,42.805,6.029,13.2958,4.59957,2469.75,2019-7-31T15:44:39Z
2019-07-31T13:47:23Z,42.805,6.029,13.2958,4.59959,2469.727,2019-7-31T15:47:42Z
2019-07-31T13:50:26Z,42.805,6.029,13.2958,4.59957,2469.737,2019-7-31T15:50:46Z
2019-07-31T13:53:29Z,42.805,6.029,13.2957,4.59954,2469.727,2019-7-31T15:53:49Z
2019-07-31T13:56:32Z,42.805,6.029,13.2954,4.59955,2469.773,2019-7-31T15:56:52Z
2019-07-31T13:59:36Z,42.805,6.029,13.2957,4.59954,2469.737,2019-7-31T15:59:55Z
2019-07-31T14:02:39Z,42.805,6.029,13.2954,4.59954,2469.76,2019-7-31T16:02:58Z
2019-07-31T14:05:42Z,42.805,6.029,13.2957,4.59955,2469.713,2019-7-31T16:06:02Z
2019-07-31T14:08:46Z,42.805,6.029,13.2957,4.59954,2469.773,2019-7-31T16:09:05Z
2019-07-31T14:11:49Z,42.805,6.029,13.2956,4.59954,2469.76,2019-7-31T16:12:08Z
2019-07-31T14:14:52Z,42.805,6.029,13.2952,4.59954,2469.773,2019-7-31T16:15:12Z
2019-07-31T14:17:55Z,42.805,6.029,13.2955,4.59955,2469.75,2019-7-31T16:18:15Z
2019-07-31T14:20:59Z,42.805,6.029,13.2954,4.59954,2469.773,2019-7-31T16:21:18Z
2019-07-31T14:24:02Z,42.805,6.029,13.2958,4.59956,2469.737,2019-7-31T16:24:21Z
2019-07-31T14:27:05Z,42.805,6.029,13.2957,4.59956,2469.773,2019-7-31T16:27:25Z
2019-07-31T14:30:08Z,42.805,6.029,13.2959,4.59954,2469.76,2019-7-31T16:30:28Z
2019-07-31T14:33:11Z,42.805,6.029,13.2958,4.59958,2469.773,2019-7-31T16:33:31Z
2019-07-31T14:36:15Z,42.805,6.029,13.2958,4.59956,2469.773,2019-7-31T16:36:34Z
2019-07-31T14:39:18Z,42.805,6.029,13.2954,4.59958,2469.783,2019-7-31T16:39:37Z
2019-07-31T14:42:21Z,42.805,6.029,13.2953,4.59953,2469.76,2019-7-31T16:42:41Z
2019-07-31T14:45:24Z,42.805,6.029,13.2956,4.59959,2469.76,2019-7-31T16:45:44Z
2019-07-31T14:48:27Z,42.805,6.029,13.2953,4.59954,2469.76,2019-7-31T16:48:47Z
2019-07-31T14:51:31Z,42.805,6.029,13.2953,4.59956,2469.821,2019-7-31T16:51:50Z
2019-07-31T14:54:34Z,42.805,6.029,13.2957,4.59955,2469.783,2019-7-31T16:54:54Z
2019-07-31T14:57:37Z,42.805,6.029,13.2958,4.59955,2469.83,2019-7-31T16:57:57Z
2019-07-31T15:00:40Z,42.805,6.029,13.2956,4.59958,2469.806,2019-7-31T17:01:00Z
2019-07-31T15:03:44Z,42.805,6.029,13.2956,4.59956,2469.797,2019-7-31T17:04:03Z
2019-07-31T15:06:47Z,42.805,6.029,13.2955,4.59954,2469.806,2019-7-31T17:07:06Z
2019-07-31T15:09:50Z,42.805,6.029,13.2955,4.59955,2469.821,2019-7-31T17:10:10Z
2019-07-31T15:12:53Z,42.805,6.029,13.2957,4.59954,2469.821,2019-7-31T17:13:13Z
2019-07-31T15:15:56Z,42.805,6.029,13.2957,4.59954,2469.806,2019-7-31T17:16:16Z